�������l�o���
Date,Time,MP-1(��Sv/h),MP-2(��Sv/h),MP-3(��Sv/h),MP-4(��Sv/h),MP-5(��Sv/h),MP-6(��Sv/h),MP-7(��Sv/h),MP-8(��Sv/h),����,����(m/s),���J
2018/03/03,00:00,0.860,1.445,0.899,1.690,1.153,0.479,0.857,0.823,���k��,3.4,��
2018/03/03,00:10,0.857,1.443,0.899,1.690,1.153,0.480,0.856,0.822,���k��,3.4,��
2018/03/03,00:20,0.860,1.441,0.900,1.694,1.155,0.479,0.858,0.823,���k��,1.7,��
2018/03/03,00:30,0.860,1.442,0.900,1.694,1.154,0.479,0.856,0.823,�쐼,1.2,��
2018/03/03,00:40,0.859,1.444,0.901,1.690,1.153,0.481,0.857,0.823,��,2.0,��
2018/03/03,00:50,0.856,1.443,0.898,1.691,1.152,0.480,0.855,0.820,���k��,3.3,��
2018/03/03,01:00,0.859,1.440,0.899,1.692,1.152,0.480,0.855,0.821,���k��,3.5,��
2018/03/03,01:10,0.857,1.443,0.898,1.692,1.154,0.479,0.856,0.822,���k��,3.8,��
2018/03/03,01:20,0.859,1.442,0.897,1.692,1.155,0.479,0.856,0.823,���k��,4.7,��
2018/03/03,01:30,0.858,1.441,0.897,1.690,1.154,0.480,0.856,0.822,���k��,5.9,��
2018/03/03,01:40,0.860,1.442,0.897,1.694,1.154,0.479,0.856,0.822,���k��,6.5,��
2018/03/03,01:50,0.859,1.445,0.898,1.693,1.154,0.479,0.856,0.823,��,7.4,��
2018/03/03,02:00,0.858,1.440,0.900,1.693,1.154,0.479,0.856,0.822,��,8.3,��
2018/03/03,02:10,0.859,1.444,0.898,1.691,1.153,0.478,0.855,0.822,���k��,5.7,��
2018/03/03,02:20,0.859,1.440,0.898,1.693,1.155,0.479,0.856,0.824,��,5.3,��
2018/03/03,02:30,0.856,1.441,0.898,1.691,1.153,0.480,0.856,0.823,��,5.0,��
2018/03/03,02:40,0.857,1.440,0.900,1.692,1.155,0.480,0.857,0.822,��,3.3,��
2018/03/03,02:50,0.858,1.443,0.897,1.692,1.154,0.478,0.854,0.823,���k��,6.3,��
2018/03/03,03:00,0.860,1.442,0.900,1.690,1.152,0.479,0.857,0.822,���k��,6.6,��
2018/03/03,03:10,0.859,1.443,0.898,1.691,1.153,0.477,0.857,0.822,���k��,8.5,��
2018/03/03,03:20,0.857,1.444,0.899,1.694,1.154,0.478,0.856,0.822,���k��,7.4,��
2018/03/03,03:30,0.857,1.443,0.897,1.692,1.152,0.478,0.857,0.822,���k��,8.2,��
2018/03/03,03:40,0.859,1.442,0.899,1.691,1.151,0.477,0.857,0.823,���k��,7.6,��
2018/03/03,03:50,0.858,1.443,0.898,1.694,1.154,0.477,0.857,0.823,���k��,6.8,��
2018/03/03,04:00,0.858,1.438,0.898,1.693,1.153,0.478,0.857,0.824,���k��,6.5,��
2018/03/03,04:10,0.856,1.441,0.898,1.693,1.153,0.478,0.856,0.821,�k��,6.6,��
2018/03/03,04:20,0.859,1.441,0.897,1.694,1.153,0.478,0.856,0.824,���k��,2.9,��
2018/03/03,04:30,0.860,1.438,0.897,1.692,1.151,0.479,0.856,0.822,���k��,2.0,��
2018/03/03,04:40,0.856,1.442,0.898,1.691,1.151,0.478,0.853,0.821,�k��,2.5,��
2018/03/03,04:50,0.857,1.439,0.897,1.689,1.152,0.476,0.853,0.824,�k��,2.6,��
2018/03/03,05:00,0.857,1.439,0.896,1.690,1.152,0.479,0.856,0.821,�k��,4.0,��
2018/03/03,05:10,0.856,1.439,0.897,1.689,1.151,0.479,0.855,0.821,�k��,4.5,��
2018/03/03,05:20,0.856,1.442,0.896,1.688,1.150,0.476,0.856,0.821,�k��,4.9,��
2018/03/03,05:30,0.856,1.439,0.897,1.690,1.152,0.479,0.856,0.823,�k��,4.7,��
2018/03/03,05:40,0.858,1.439,0.896,1.690,1.152,0.477,0.853,0.822,�k��,6.5,��
2018/03/03,05:50,0.856,1.440,0.896,1.689,1.151,0.477,0.857,0.821,���k��,6.1,��
2018/03/03,06:00,0.856,1.440,0.898,1.692,1.150,0.477,0.856,0.823,���k��,7.5,��
2018/03/03,06:10,0.856,1.440,0.897,1.692,1.154,0.478,0.856,0.822,��,7.6,��
2018/03/03,06:20,0.854,1.438,0.899,1.693,1.151,0.477,0.856,0.822,��,4.4,��
2018/03/03,06:30,0.856,1.441,0.896,1.689,1.152,0.477,0.855,0.824,�쐼,3.1,��
2018/03/03,06:40,0.857,1.441,0.895,1.694,1.150,0.478,0.857,0.823,��,3.4,��
2018/03/03,06:50,0.858,1.440,0.897,1.690,1.153,0.478,0.855,0.821,��쓌,4.7,��
2018/03/03,07:00,0.857,1.441,0.895,1.692,1.151,0.477,0.855,0.822,��쓌,4.0,��
2018/03/03,07:10,0.857,1.440,0.897,1.690,1.150,0.475,0.856,0.823,��쓌,3.4,��
2018/03/03,07:20,0.857,1.438,0.895,1.696,1.153,0.477,0.857,0.822,��쓌,3.3,��
2018/03/03,07:30,0.858,1.441,0.898,1.694,1.150,0.478,0.855,0.822,��쓌,3.7,��
2018/03/03,07:40,0.859,1.439,0.898,1.691,1.153,0.479,0.856,0.822,�쓌,3.1,��
2018/03/03,07:50,0.859,1.439,0.898,1.692,1.150,0.478,0.857,0.822,��쓌,2.2,��
2018/03/03,08:00,0.857,1.439,0.896,1.693,1.153,0.477,0.857,0.824,�쓌,2.6,��
2018/03/03,08:10,0.857,1.439,0.898,1.691,1.154,0.480,0.857,0.824,�쓌,2.0,��
2018/03/03,08:20,0.858,1.439,0.899,1.691,1.155,0.479,0.858,0.823,���쓌,2.5,��
2018/03/03,08:30,0.858,1.442,0.896,1.694,1.155,0.477,0.857,0.822,���쓌,2.2,��
2018/03/03,08:40,0.857,1.441,0.899,1.691,1.153,0.477,0.859,0.824,�쓌,2.5,��
2018/03/03,08:50,0.860,1.443,0.895,1.695,1.153,0.478,0.857,0.825,��,2.3,��
2018/03/03,09:00,0.860,1.442,0.897,1.694,1.155,0.476,0.855,0.822,���쓌,2.9,��
2018/03/03,09:10,0.858,1.444,0.898,1.694,1.155,0.478,0.857,0.823,���쓌,2.5,��
2018/03/03,09:20,0.860,1.439,0.898,1.692,1.155,0.477,0.857,0.824,���쓌,3.1,��
2018/03/03,09:30,0.860,1.442,0.898,1.692,1.155,0.479,0.855,0.825,���쓌,2.9,��
2018/03/03,09:40,0.859,1.443,0.901,1.691,1.155,0.480,0.858,0.824,���쓌,2.8,��
2018/03/03,09:50,0.861,1.444,0.899,1.695,1.157,0.478,0.857,0.824,��,2.9,��
2018/03/03,10:00,0.862,1.442,0.898,1.695,1.158,0.480,0.858,0.825,��,3.1,��
2018/03/03,10:10,0.860,1.443,0.899,1.694,1.157,0.479,0.857,0.825,���쓌,3.2,��
2018/03/03,10:20,0.858,1.442,0.897,1.694,1.156,0.479,0.855,0.823,���쓌,3.5,��
2018/03/03,10:30,0.863,1.442,0.901,1.692,1.159,0.479,0.857,0.823,��,4.4,��
2018/03/03,10:40,0.860,1.443,0.898,1.696,1.158,0.480,0.857,0.825,��,4.1,��
2018/03/03,10:50,0.861,1.443,0.901,1.693,1.157,0.482,0.858,0.822,���쓌,3.5,��
2018/03/03,11:00,0.864,1.442,0.900,1.696,1.157,0.481,0.857,0.821,���쓌,4.7,��
2018/03/03,11:10,0.864,1.443,0.902,1.696,1.159,0.481,0.857,0.822,�쓌,3.2,��
2018/03/03,11:20,0.865,1.443,0.901,1.696,1.159,0.480,0.856,0.823,�쓌,5.4,��
2018/03/03,11:30,0.865,1.444,0.902,1.696,1.159,0.481,0.857,0.822,�쓌,6.6,��
2018/03/03,11:40,0.864,1.445,0.900,1.697,1.159,0.481,0.859,0.824,��쓌,7.7,��
2018/03/03,11:50,0.863,1.442,0.902,1.693,1.159,0.481,0.856,0.823,��쓌,7.7,��
2018/03/03,12:00,0.864,1.443,0.902,1.695,1.159,0.480,0.856,0.825,��쓌,9.5,��
2018/03/03,12:10,0.862,1.443,0.903,1.695,1.159,0.482,0.857,0.825,��쓌,9.0,��
2018/03/03,12:20,0.866,1.444,0.901,1.698,1.159,0.481,0.858,0.824,��쓌,10.0,��
2018/03/03,12:30,0.866,1.445,0.903,1.697,1.161,0.481,0.858,0.826,��쓌,10.7,��
2018/03/03,12:40,0.865,1.446,0.902,1.698,1.160,0.480,0.858,0.826,��쓌,10.5,��
2018/03/03,12:50,0.866,1.448,0.903,1.697,1.162,0.481,0.859,0.824,��쓌,8.5,��
2018/03/03,13:00,0.865,1.449,0.903,1.697,1.159,0.483,0.858,0.824,��쓌,11.1,��
2018/03/03,13:10,0.867,1.448,0.901,1.697,1.163,0.484,0.859,0.823,��쓌,11.7,��
2018/03/03,13:20,0.865,1.451,0.902,1.700,1.161,0.483,0.858,0.824,��쓌,11.1,��
2018/03/03,13:30,0.867,1.447,0.901,1.700,1.163,0.483,0.858,0.821,��쓌,10.3,��
2018/03/03,13:40,0.866,1.448,0.905,1.695,1.162,0.485,0.860,0.821,��쓌,7.7,��
2018/03/03,13:50,0.866,1.450,0.903,1.699,1.160,0.483,0.859,0.821,��쓌,8.8,��
2018/03/03,14:00,0.867,1.451,0.902,1.699,1.164,0.483,0.859,0.822,��쓌,8.9,��
2018/03/03,14:10,0.867,1.452,0.902,1.697,1.163,0.482,0.861,0.822,��쓌,14.4,��
2018/03/03,14:20,0.866,1.451,0.904,1.696,1.161,0.484,0.859,0.823,��쓌,11.3,��
2018/03/03,14:30,0.867,1.451,0.904,1.699,1.160,0.482,0.858,0.823,��쓌,10.9,��
2018/03/03,14:40,0.869,1.447,0.904,1.697,1.163,0.485,0.858,0.822,��,11.3,��
2018/03/03,14:50,0.866,1.441,0.903,1.696,1.162,0.484,0.859,0.823,��,12.4,��
2018/03/03,15:00,0.867,1.447,0.902,1.695,1.164,0.484,0.860,0.822,��,10.5,��
2018/03/03,15:10,0.866,1.449,0.902,1.697,1.163,0.484,0.858,0.822,��,9.7,��
2018/03/03,15:20,0.868,1.450,0.903,1.699,1.162,0.484,0.859,0.823,��,9.1,��
2018/03/03,15:30,0.868,1.453,0.904,1.699,1.163,0.484,0.858,0.822,��,10.2,��
2018/03/03,15:40,0.869,1.456,0.904,1.696,1.163,0.484,0.858,0.822,��,11.0,��
2018/03/03,15:50,0.869,1.455,0.901,1.700,1.164,0.484,0.859,0.822,��쓌,12.4,��
2018/03/03,16:00,0.868,1.454,0.904,1.697,1.163,0.482,0.860,0.824,��,11.0,��
2018/03/03,16:10,0.869,1.454,0.906,1.697,1.165,0.483,0.860,0.825,��,11.9,��
2018/03/03,16:20,0.868,1.454,0.906,1.699,1.162,0.485,0.859,0.823,��,11.4,��
2018/03/03,16:30,0.869,1.454,0.905,1.699,1.167,0.484,0.858,0.826,��,11.6,��
2018/03/03,16:40,0.869,1.454,0.906,1.701,1.165,0.483,0.859,0.825,��,8.5,��
2018/03/03,16:50,0.865,1.455,0.905,1.698,1.163,0.484,0.860,0.824,��,10.2,��
2018/03/03,17:00,0.869,1.454,0.906,1.699,1.163,0.482,0.858,0.826,��쓌,12.0,��
2018/03/03,17:10,0.867,1.454,0.906,1.697,1.161,0.483,0.858,0.825,��,11.4,��
2018/03/03,17:20,0.866,1.454,0.906,1.699,1.165,0.483,0.860,0.824,��쓌,14.2,��
2018/03/03,17:30,0.866,1.454,0.905,1.696,1.166,0.482,0.859,0.826,��쓌,10.5,��
2018/03/03,17:40,0.866,1.456,0.905,1.697,1.165,0.483,0.859,0.825,��쓌,10.5,��
2018/03/03,17:50,0.865,1.453,0.906,1.699,1.166,0.483,0.861,0.826,��쓌,10.3,��
2018/03/03,18:00,0.866,1.455,0.903,1.698,1.163,0.484,0.861,0.825,��쓌,9.7,��
2018/03/03,18:10,0.869,1.453,0.905,1.697,1.165,0.481,0.860,0.825,��쓌,9.5,��
2018/03/03,18:20,0.866,1.454,0.904,1.696,1.164,0.482,0.860,0.825,��쓌,8.7,��
2018/03/03,18:30,0.867,1.453,0.904,1.696,1.166,0.482,0.860,0.824,��,7.9,��
2018/03/03,18:40,0.868,1.456,0.903,1.697,1.165,0.483,0.861,0.824,��쓌,7.8,��
2018/03/03,18:50,0.866,1.453,0.905,1.695,1.164,0.483,0.861,0.825,��쓌,7.3,��
2018/03/03,19:00,0.866,1.455,0.905,1.697,1.164,0.482,0.860,0.824,��쓌,7.5,��
2018/03/03,19:10,0.865,1.453,0.905,1.700,1.166,0.483,0.860,0.822,��쓌,8.2,��
2018/03/03,19:20,0.867,1.454,0.904,1.697,1.166,0.481,0.860,0.825,��쓌,7.3,��
2018/03/03,19:30,0.866,1.452,0.905,1.694,1.166,0.481,0.861,0.824,��,6.8,��
2018/03/03,19:40,0.869,1.456,0.905,1.696,1.167,0.482,0.860,0.825,��,6.5,��
2018/03/03,19:50,0.865,1.457,0.903,1.697,1.165,0.483,0.859,0.826,��쐼,6.3,��
2018/03/03,20:00,0.867,1.454,0.907,1.694,1.165,0.482,0.860,0.825,��쐼,3.8,��
2018/03/03,20:10,0.867,1.457,0.904,1.696,1.163,0.482,0.860,0.823,��쐼,3.8,��
2018/03/03,20:20,0.867,1.453,0.903,1.698,1.164,0.483,0.860,0.826,��,4.8,��
2018/03/03,20:30,0.864,1.452,0.903,1.697,1.162,0.483,0.858,0.825,��,3.9,��
2018/03/03,20:40,0.866,1.456,0.904,1.696,1.166,0.482,0.861,0.824,��,4.8,��
2018/03/03,20:50,0.867,1.451,0.902,1.695,1.167,0.481,0.859,0.826,��,6.1,��
2018/03/03,21:00,0.867,1.452,0.903,1.696,1.165,0.482,0.859,0.824,��,5.6,��
2018/03/03,21:10,0.867,1.452,0.903,1.695,1.163,0.482,0.858,0.825,��,4.9,��
2018/03/03,21:20,0.869,1.451,0.901,1.695,1.166,0.484,0.859,0.825,��,4.2,��
2018/03/03,21:30,0.865,1.451,0.902,1.696,1.164,0.482,0.859,0.824,��,4.0,��
2018/03/03,21:40,0.865,1.451,0.903,1.694,1.161,0.482,0.858,0.823,��,2.9,��
2018/03/03,21:50,0.863,1.454,0.904,1.692,1.163,0.482,0.858,0.824,��,2.3,��
2018/03/03,22:00,0.864,1.450,0.902,1.694,1.163,0.481,0.859,0.823,��,4.0,��
2018/03/03,22:10,0.866,1.451,0.903,1.693,1.163,0.481,0.857,0.824,��,4.2,��
2018/03/03,22:20,0.867,1.452,0.902,1.693,1.163,0.483,0.857,0.824,��,2.6,��
2018/03/03,22:30,0.865,1.453,0.901,1.695,1.164,0.481,0.857,0.825,��,3.9,��
2018/03/03,22:40,0.866,1.447,0.904,1.690,1.162,0.483,0.856,0.824,��,4.7,��
2018/03/03,22:50,0.865,1.452,0.901,1.693,1.166,0.481,0.856,0.824,��,4.0,��
2018/03/03,23:00,0.865,1.450,0.903,1.695,1.165,0.482,0.857,0.825,��,3.8,��
2018/03/03,23:10,0.865,1.450,0.903,1.693,1.163,0.481,0.858,0.824,��,3.8,��
2018/03/03,23:20,0.865,1.449,0.902,1.694,1.160,0.483,0.857,0.824,��,3.7,��
2018/03/03,23:30,0.867,1.451,0.903,1.691,1.164,0.481,0.859,0.823,��,4.3,��
2018/03/03,23:40,0.865,1.450,0.902,1.692,1.160,0.482,0.858,0.824,��,3.9,��
2018/03/03,23:50,0.864,1.452,0.903,1.694,1.162,0.482,0.858,0.824,��,4.1,��
